| time (UTC) | temp F | wind direction | speed MPH | gust MPH | rain 1hr in | rain 24hr in | rain mn in | humidity % | barometer mb |
| 20260510095528 | 49 | 271 | 5.0 | 7.0 | 0.00 | 0.30 | 0.00 | 93 | 1009.7 |
| 20260510095028 | 49 | 251 | 4.0 | 6.0 | 0.00 | 0.30 | 0.00 | 93 | 1009.6 |
| 20260510094528 | 49 | 268 | 4.0 | 6.0 | 0.00 | 0.30 | 0.00 | 93 | 1009.6 |
| 20260510094028 | 49 | 258 | 3.0 | 6.0 | 0.00 | 0.31 | 0.00 | 93 | 1009.4 |
| 20260510093759 | 49 | 255 | 4.0 | 6.0 | 0.00 | 0.32 | 0.00 | 92 | 1009.4 |
| 20260510093028 | 49 | 248 | 3.0 | 5.0 | 0.00 | 0.33 | 0.00 | 92 | 1009.5 |
| 20260510092528 | 49 | 254 | 3.0 | 9.0 | 0.00 | 0.33 | 0.00 | 92 | 1009.2 |
| 20260510092027 | 49 | 252 | 5.0 | 9.0 | 0.00 | 0.34 | 0.00 | 92 | 1009.3 |
| 20260510091527 | 49 | 255 | 4.0 | 10.0 | 0.00 | 0.34 | 0.00 | 92 | 1009.1 |
| 20260510091029 | 49 | 268 | 4.0 | 11.0 | 0.00 | 0.34 | 0.00 | 92 | 1009.1 |
| 20260510090528 | 49 | 271 | 6.0 | 11.0 | 0.00 | 0.34 | 0.00 | 92 | 1009.1 |
| 20260510090029 | 49 | 266 | 5.0 | 11.0 | 0.00 | 0.34 | 0.00 | 92 | 1009.2 |
| 20260510085805 | 49 | 266 | 6.0 | 11.0 | 0.00 | 0.35 | 0.00 | 92 | 1009.2 |
| 20260510085306 | 49 | 250 | 5.0 | 10.0 | 0.00 | 0.35 | 0.00 | 92 | 1009.1 |
| 20260510084528 | 49 | 292 | 6.0 | 9.0 | 0.00 | 0.35 | 0.00 | 92 | 1009.1 |
| 20260510084028 | 49 | 248 | 4.0 | 9.0 | 0.00 | 0.35 | 0.00 | 92 | 1009.0 |
| 20260510083529 | 49 | 257 | 6.0 | 9.0 | 0.00 | 0.35 | 0.00 | 92 | 1008.9 |
| 20260510083028 | 49 | 237 | 5.0 | 7.0 | 0.00 | 0.35 | 0.00 | 92 | 1008.9 |
| 20260510082528 | 49 | 251 | 4.0 | 7.0 | 0.00 | 0.35 | 0.00 | 92 | 1008.9 |
| 20260510082306 | 49 | 279 | 5.0 | 7.0 | 0.00 | 0.35 | 0.00 | 92 | 1009.0 |
| 20260510081806 | 49 | 238 | 4.0 | 7.0 | 0.00 | 0.35 | 0.00 | 92 | 1009.0 |
| 20260510081027 | 49 | 250 | 4.0 | 7.0 | 0.00 | 0.35 | 0.00 | 92 | 1009.0 |
| 20260510080528 | 49 | 259 | 3.0 | 10.0 | 0.00 | 0.35 | 0.00 | 92 | 1008.8 |
| 20260510080029 | 49 | 285 | 3.0 | 13.0 | 0.00 | 0.35 | 0.00 | 92 | 1008.8 |
| 20260510075529 | 49 | 207 | 6.0 | 13.0 | 0.00 | 0.35 | 0.00 | 92 | 1008.8 |
| 20260510075306 | 49 | 254 | 6.0 | 11.0 | 0.00 | 0.35 | 0.00 | 92 | 1008.8 |
| 20260510074527 | 49 | 235 | 4.0 | 7.0 | 0.00 | 0.35 | 0.00 | 92 | 1009.0 |
| 20260510074027 | 49 | 245 | 4.0 | 6.0 | 0.00 | 0.35 | 0.00 | 92 | 1009.0 |
| 20260510073529 | 49 | 251 | 3.0 | 7.0 | 0.00 | 0.35 | 0.00 | 92 | 1008.9 |
| 20260510073027 | 49 | 264 | 4.0 | 7.0 | 0.00 | 0.35 | 0.00 | 92 | 1009.0 |
| 20260510072530 | 49 | 250 | 4.0 | 7.0 | 0.00 | 0.35 | 0.00 | 92 | 1008.9 |
| 20260510072028 | 49 | 259 | 3.0 | 7.0 | 0.00 | 0.35 | 0.00 | 92 | 1009.0 |
| 20260510071528 | 49 | 196 | 3.0 | 6.0 | 0.00 | 0.35 | 0.00 | 92 | 1008.8 |
| 20260510071028 | 49 | 192 | 4.0 | 7.0 | 0.00 | 0.35 | 0.00 | 92 | 1008.8 |
| 20260510070527 | 49 | 245 | 3.0 | 7.0 | 0.00 | 0.35 | 0.00 | 92 | 1008.6 |
| 20260510070047 | 49 | 268 | 5.0 | 10.0 | 0.00 | 0.35 | 0.00 | 92 | 1008.5 |
| 20260510070039 | 49 | 209 | 3.0 | 10.0 | 0.00 | 0.35 | 0.00 | 92 | 1008.5 |
| 20260510065029 | 49 | 238 | 5.0 | 11.0 | 0.00 | 0.35 | 0.00 | 92 | 1008.6 |
| 20260510064527 | 48 | 206 | 6.0 | 11.0 | 0.00 | 0.35 | 0.00 | 92 | 1008.8 |
| 20260510064027 | 48 | 234 | 4.0 | 10.0 | 0.00 | 0.35 | 0.00 | 92 | 1008.7 |
| 20260510063527 | 48 | 250 | 6.0 | 11.0 | 0.00 | 0.35 | 0.00 | 92 | 1008.7 |
| 20260510063028 | 48 | 257 | 4.0 | 12.0 | 0.00 | 0.35 | 0.00 | 92 | 1008.8 |
| 20260510062530 | 48 | 231 | 5.0 | 12.0 | 0.00 | 0.35 | 0.00 | 91 | 1008.8 |
| 20260510062027 | 48 | 216 | 3.0 | 7.0 | 0.00 | 0.35 | 0.00 | 91 | 1008.8 |
| 20260510061805 | 48 | 231 | 2.0 | 5.0 | 0.00 | 0.35 | 0.00 | 91 | 1008.9 |
| 20260510061028 | 48 | 214 | 3.0 | 6.0 | 0.00 | 0.35 | 0.00 | 91 | 1008.8 |
| 20260510060528 | 49 | 188 | 2.0 | 6.0 | 0.00 | 0.35 | 0.00 | 91 | 1008.7 |
| 20260510060027 | 49 | 197 | 2.0 | 5.0 | 0.00 | 0.36 | 0.00 | 91 | 1008.7 |
| 20260510055527 | 49 | 209 | 3.0 | 7.0 | 0.00 | 0.36 | 0.00 | 91 | 1008.6 |
| 20260510055028 | 49 | 186 | 3.0 | 7.0 | 0.00 | 0.36 | 0.00 | 91 | 1008.7 |
| 20260510054529 | 49 | 185 | 5.0 | 7.0 | 0.00 | 0.36 | 0.00 | 90 | 1008.6 |
| 20260510054303 | 49 | 186 | 3.0 | 6.0 | 0.00 | 0.36 | 0.00 | 90 | 1008.7 |
| 20260510053528 | 49 | 199 | 3.0 | 6.0 | 0.00 | 0.37 | 0.00 | 90 | 1008.7 |
| 20260510053301 | 49 | 190 | 3.0 | 6.0 | 0.00 | 0.37 | 0.00 | 90 | 1008.7 |
| 20260510052527 | 49 | 231 | 3.0 | 6.0 | 0.00 | 0.37 | 0.00 | 90 | 1009.0 |
| 20260510052028 | 49 | 176 | 4.0 | 7.0 | 0.00 | 0.37 | 0.00 | 91 | 1009.0 |
| 20260510051528 | 49 | 157 | 4.0 | 10.0 | 0.00 | 0.38 | 0.00 | 91 | 1008.8 |
| 20260510051028 | 49 | 164 | 6.0 | 10.0 | 0.00 | 0.38 | 0.00 | 91 | 1008.9 |
| 20260510050528 | 49 | 188 | 6.0 | 11.0 | 0.00 | 0.39 | 0.00 | 91 | 1009.0 |
| 20260510050027 | 49 | 180 | 6.0 | 14.0 | 0.00 | 0.39 | 0.00 | 92 | 1009.1 |
| 20260510045528 | 49 | 195 | 7.0 | 14.0 | 0.00 | 0.40 | 0.00 | 92 | 1009.1 |
| 20260510045027 | 49 | 235 | 4.0 | 9.0 | 0.00 | 0.40 | 0.00 | 92 | 1009.2 |
| 20260510045019 | 49 | 169 | 4.0 | 10.0 | 0.00 | 0.41 | 0.00 | 92 | 1009.0 |
| 20260510044036 | 49 | 219 | 4.0 | 10.0 | 0.00 | 0.42 | 0.00 | 92 | 1009.1 |
| 20260510044027 | 49 | 237 | 4.0 | 10.0 | 0.00 | 0.41 | 0.00 | 92 | 1009.1 |
| 20260510043028 | 49 | 238 | 5.0 | 10.0 | 0.01 | 0.43 | 0.00 | 92 | 1009.3 |
| 20260510042527 | 49 | 248 | 5.0 | 10.0 | 0.02 | 0.43 | 0.00 | 92 | 1009.2 |
| 20260510042027 | 49 | 216 | 4.0 | 10.0 | 0.03 | 0.43 | 0.00 | 92 | 1009.3 |
| 20260510041801 | 49 | 255 | 3.0 | 11.0 | 0.04 | 0.44 | 0.00 | 92 | 1009.2 |
| 20260510041027 | 49 | 193 | 5.0 | 12.0 | 0.05 | 0.44 | 0.00 | 92 | 1009.1 |
| 20260510040805 | 49 | 202 | 6.0 | 12.0 | 0.05 | 0.44 | 0.00 | 92 | 1009.1 |
| 20260510040028 | 48 | 189 | 6.0 | 12.0 | 0.06 | 0.44 | 0.00 | 92 | 1009.2 |
| 20260510040022 | 48 | 312 | 6.0 | 13.0 | 0.06 | 0.38 | 0.44 | 92 | 1009.1 |
| 20260510035308 | 48 | 145 | 6.0 | 13.0 | 0.07 | 0.38 | 0.44 | 92 | 1008.9 |
| 20260510035306 | 48 | 221 | 5.0 | 12.0 | 0.08 | 0.38 | 0.44 | 92 | 1009.0 |
| 20260510034516 | 48 | 192 | 7.0 | 17.0 | 0.09 | 0.38 | 0.44 | 92 | 1008.9 |
| 20260510033758 | 48 | 169 | 9.0 | 17.0 | 0.09 | 0.38 | 0.44 | 92 | 1008.9 |
| 20260510033304 | 48 | 183 | 6.0 | 15.0 | 0.08 | 0.38 | 0.43 | 92 | 1009.1 |
| 20260510032734 | 48 | 196 | 8.0 | 15.0 | 0.08 | 0.38 | 0.42 | 92 | 1009.3 |
| 20260510031801 | 48 | 173 | 5.0 | 10.0 | 0.07 | 0.38 | 0.40 | 91 | 1009.4 |
| 20260510031306 | 48 | 165 | 4.0 | 12.0 | 0.06 | 0.38 | 0.39 | 91 | 1009.4 |
| 20260510030527 | 49 | 248 | 4.0 | 13.0 | 0.06 | 0.38 | 0.39 | 91 | 1009.4 |
| 20260510030027 | 49 | 258 | 9.0 | 14.0 | 0.05 | 0.38 | 0.38 | 90 | 1009.6 |
| 20260510025755 | 49 | 265 | 10.0 | 14.0 | 0.05 | 0.33 | 0.38 | 90 | 1009.4 |
| 20260510024038 | 50 | 268 | 10.0 | 21.0 | 0.02 | 0.33 | 0.35 | 86 | 1009.7 |
| 20260510024027 | 50 | 275 | 12.0 | 20.0 | 0.02 | 0.33 | 0.35 | 88 | 1009.8 |
| 20260510022306 | 52 | 276 | 19.0 | 33.0 | 0.00 | 0.33 | 0.33 | 81 | 1009.4 |
| 20260510021528 | 53 | 292 | 14.0 | 28.0 | 0.00 | 0.33 | 0.33 | 83 | 1009.0 |
| 20260510021026 | 54 | 282 | 8.0 | 12.0 | 0.00 | 0.33 | 0.33 | 88 | 1008.8 |
| 20260510020527 | 54 | 286 | 4.0 | 10.0 | 0.00 | 0.33 | 0.33 | 88 | 1008.4 |
| 20260510020027 | 54 | 255 | 3.0 | 11.0 | 0.00 | 0.33 | 0.33 | 89 | 1008.2 |
| 20260510015527 | 54 | 268 | 4.0 | 12.0 | 0.00 | 0.33 | 0.33 | 89 | 1008.1 |
| 20260510015028 | 54 | 265 | 6.0 | 13.0 | 0.00 | 0.33 | 0.33 | 89 | 1008.1 |
| 20260510014527 | 54 | 265 | 5.0 | 13.0 | 0.00 | 0.33 | 0.33 | 89 | 1007.8 |
| 20260510014027 | 54 | 204 | 6.0 | 10.0 | 0.00 | 0.33 | 0.33 | 89 | 1007.7 |
| 20260510013527 | 54 | 188 | 4.0 | 11.0 | 0.00 | 0.33 | 0.33 | 89 | 1007.5 |
| 20260510013027 | 54 | 186 | 6.0 | 11.0 | 0.00 | 0.33 | 0.33 | 89 | 1007.4 |
| 20260510012804 | 54 | 168 | 8.0 | 12.0 | 0.00 | 0.33 | 0.33 | 89 | 1007.2 |
| 20260510012027 | 54 | 152 | 7.0 | 12.0 | 0.00 | 0.33 | 0.33 | 89 | 1007.1 |
| 20260510011804 | 54 | 161 | 6.0 | 12.0 | 0.00 | 0.33 | 0.33 | 89 | 1007.1 |
| 20260510011027 | 54 | 155 | 8.0 | 13.0 | 0.00 | 0.33 | 0.33 | 89 | 1006.9 |
| 20260510010528 | 54 | 151 | 7.0 | 13.0 | 0.00 | 0.33 | 0.33 | 88 | 1007.0 |
| 20260510010029 | 54 | 166 | 6.0 | 11.0 | 0.00 | 0.33 | 0.33 | 88 | 1007.0 |
| 20260510005807 | 54 | 162 | 7.0 | 13.0 | 0.00 | 0.33 | 0.33 | 87 | 1006.9 |
| 20260510005027 | 54 | 165 | 8.0 | 13.0 | 0.00 | 0.33 | 0.33 | 87 | 1006.9 |
| 20260510004528 | 54 | 159 | 8.0 | 13.0 | 0.00 | 0.33 | 0.33 | 86 | 1006.9 |
| 20260510004028 | 54 | 149 | 8.0 | 11.0 | 0.00 | 0.33 | 0.33 | 86 | 1006.7 |
| 20260510003527 | 55 | 173 | 6.0 | 14.0 | 0.00 | 0.33 | 0.33 | 85 | 1006.8 |
| 20260510003027 | 55 | 183 | 6.0 | 14.0 | 0.00 | 0.33 | 0.33 | 85 | 1006.9 |
| 20260510002527 | 55 | 192 | 7.0 | 11.0 | 0.00 | 0.33 | 0.33 | 85 | 1006.9 |
| 20260510002027 | 55 | 185 | 6.0 | 12.0 | 0.00 | 0.33 | 0.33 | 85 | 1006.8 |
| 20260510001527 | 55 | 203 | 6.0 | 12.0 | 0.00 | 0.33 | 0.33 | 85 | 1006.7 |
| 20260510001305 | 55 | 185 | 7.0 | 13.0 | 0.00 | 0.33 | 0.33 | 85 | 1006.7 |
| 20260510000527 | 55 | 189 | 7.0 | 13.0 | 0.00 | 0.33 | 0.33 | 84 | 1006.6 |
| 20260510000027 | 55 | 176 | 7.0 | 11.0 | 0.00 | 0.33 | 0.33 | 84 | 1006.6 |
| 20260509235529 | 55 | 171 | 7.0 | 10.0 | 0.00 | 0.33 | 0.33 | 83 | 1006.7 |
| 20260509235026 | 56 | 197 | 6.0 | 12.0 | 0.00 | 0.33 | 0.33 | 81 | 1006.5 |
| 20260509234527 | 56 | 199 | 6.0 | 12.0 | 0.00 | 0.33 | 0.33 | 81 | 1006.5 |
| 20260509234027 | 56 | 176 | 5.0 | 11.0 | 0.00 | 0.33 | 0.33 | 80 | 1006.5 |
| 20260509233527 | 56 | 152 | 5.0 | 12.0 | 0.00 | 0.33 | 0.33 | 79 | 1006.6 |
| 20260509233027 | 56 | 202 | 7.0 | 12.0 | 0.00 | 0.33 | 0.33 | 79 | 1006.6 |
| 20260509232527 | 57 | 204 | 5.0 | 12.0 | 0.00 | 0.33 | 0.33 | 79 | 1006.6 |
| 20260509232027 | 57 | 190 | 7.0 | 17.0 | 0.00 | 0.33 | 0.33 | 79 | 1006.6 |
| 20260509231528 | 57 | 200 | 9.0 | 17.0 | 0.00 | 0.33 | 0.33 | 78 | 1006.6 |
| 20260509231028 | 58 | 182 | 7.0 | 17.0 | 0.00 | 0.33 | 0.33 | 78 | 1006.7 |
| 20260509230528 | 58 | 169 | 9.0 | 15.0 | 0.00 | 0.33 | 0.33 | 79 | 1006.5 |
| 20260509230027 | 58 | 186 | 6.0 | 13.0 | 0.00 | 0.33 | 0.33 | 79 | 1006.5 |
| 20260509225527 | 58 | 207 | 6.0 | 12.0 | 0.00 | 0.33 | 0.33 | 80 | 1006.2 |
| 20260509225027 | 57 | 162 | 8.0 | 15.0 | 0.00 | 0.33 | 0.33 | 79 | 1006.1 |
| 20260509224803 | 57 | 179 | 9.0 | 15.0 | 0.00 | 0.33 | 0.33 | 78 | 1006.1 |
| 20260509224026 | 58 | 173 | 10.0 | 15.0 | 0.00 | 0.33 | 0.33 | 79 | 1006.2 |
| 20260509223805 | 58 | 197 | 6.0 | 12.0 | 0.00 | 0.33 | 0.33 | 78 | 1006.1 |
| 20260509223027 | 57 | 219 | 6.0 | 12.0 | 0.00 | 0.33 | 0.33 | 79 | 1006.2 |
| 20260509222527 | 57 | 209 | 5.0 | 15.0 | 0.00 | 0.33 | 0.33 | 79 | 1006.0 |
| 20260509222028 | 57 | 213 | 7.0 | 18.0 | 0.00 | 0.33 | 0.33 | 79 | 1006.0 |
| 20260509221527 | 57 | 237 | 6.0 | 18.0 | 0.00 | 0.33 | 0.33 | 80 | 1006.2 |
| 20260509221027 | 57 | 235 | 4.0 | 13.0 | 0.00 | 0.33 | 0.33 | 81 | 1006.1 |
| 20260509220528 | 57 | 258 | 5.0 | 13.0 | 0.00 | 0.33 | 0.33 | 82 | 1006.1 |
| 20260509220027 | 57 | 240 | 7.0 | 13.0 | 0.00 | 0.33 | 0.33 | 82 | 1006.0 |
| 20260509215527 | 57 | 161 | 6.0 | 14.0 | 0.00 | 0.33 | 0.33 | 84 | 1006.2 |
| 20260509215026 | 57 | 217 | 8.0 | 16.0 | 0.00 | 0.33 | 0.33 | 84 | 1006.2 |
| 20260509214527 | 57 | 185 | 7.0 | 16.0 | 0.00 | 0.33 | 0.33 | 85 | 1006.2 |
| 20260509214028 | 56 | 188 | 8.0 | 13.0 | 0.00 | 0.33 | 0.33 | 86 | 1006.4 |
| 20260509213527 | 56 | 176 | 5.0 | 12.0 | 0.00 | 0.33 | 0.33 | 86 | 1006.6 |
| 20260509213029 | 56 | 169 | 5.0 | 14.0 | 0.00 | 0.33 | 0.33 | 87 | 1006.4 |
| 20260509212532 | 56 | 231 | 4.0 | 14.0 | 0.00 | 0.33 | 0.33 | 88 | 1006.4 |
| 20260509212312 | 56 | 271 | 5.0 | 12.0 | 0.01 | 0.33 | 0.33 | 91 | 1006.4 |
| 20260509211527 | 55 | 176 | 5.0 | 12.0 | 0.01 | 0.33 | 0.33 | 91 | 1006.5 |
| 20260509211026 | 55 | 171 | 5.0 | 10.0 | 0.01 | 0.33 | 0.33 | 92 | 1006.5 |
| 20260509210527 | 54 | 212 | 3.0 | 12.0 | 0.01 | 0.33 | 0.33 | 91 | 1006.6 |
| 20260509210027 | 54 | 172 | 7.0 | 12.0 | 0.01 | 0.33 | 0.33 | 92 | 1006.7 |
| 20260509205526 | 55 | 164 | 5.0 | 10.0 | 0.01 | 0.32 | 0.33 | 92 | 1006.7 |
| 20260509205028 | 54 | 176 | 6.0 | 10.0 | 0.01 | 0.32 | 0.33 | 93 | 1006.8 |
| 20260509204527 | 54 | 195 | 7.0 | 10.0 | 0.01 | 0.32 | 0.33 | 94 | 1006.8 |
| 20260509204026 | 54 | 172 | 6.0 | 11.0 | 0.01 | 0.32 | 0.33 | 93 | 1006.9 |
| 20260509203527 | 54 | 155 | 6.0 | 11.0 | 0.01 | 0.32 | 0.33 | 93 | 1006.9 |
| 20260509203029 | 53 | 130 | 5.0 | 11.0 | 0.01 | 0.32 | 0.33 | 92 | 1007.0 |
| 20260509202527 | 53 | 134 | 6.0 | 11.0 | 0.01 | 0.32 | 0.33 | 91 | 1007.0 |
| 20260509202027 | 54 | 175 | 6.0 | 13.0 | 0.00 | 0.32 | 0.32 | 90 | 1007.1 |
| 20260509201527 | 54 | 159 | 6.0 | 13.0 | 0.00 | 0.32 | 0.32 | 90 | 1007.1 |
| 20260509201026 | 54 | 168 | 6.0 | 11.0 | 0.00 | 0.32 | 0.32 | 90 | 1007.1 |
| 20260509200527 | 54 | 183 | 6.0 | 12.0 | 0.00 | 0.32 | 0.32 | 90 | 1007.1 |
| 20260509200026 | 54 | 176 | 7.0 | 12.0 | 0.00 | 0.32 | 0.32 | 90 | 1007.1 |
| 20260509195527 | 53 | 162 | 4.0 | 11.0 | 0.00 | 0.32 | 0.32 | 90 | 1007.2 |
| 20260509195028 | 53 | 166 | 8.0 | 11.0 | 0.00 | 0.32 | 0.32 | 90 | 1007.3 |
| 20260509194804 | 53 | 168 | 6.0 | 10.0 | 0.00 | 0.32 | 0.32 | 90 | 1007.2 |
| 20260509194028 | 53 | 161 | 5.0 | 10.0 | 0.00 | 0.32 | 0.32 | 90 | 1007.3 |
| 20260509193526 | 53 | 182 | 6.0 | 10.0 | 0.00 | 0.32 | 0.32 | 91 | 1007.4 |
| 20260509193027 | 53 | 166 | 4.0 | 9.0 | 0.00 | 0.32 | 0.32 | 91 | 1007.5 |
| 20260509192527 | 53 | 157 | 4.0 | 9.0 | 0.00 | 0.32 | 0.32 | 90 | 1007.5 |
| 20260509192027 | 53 | 179 | 4.0 | 11.0 | 0.00 | 0.32 | 0.32 | 91 | 1007.5 |
| 20260509191527 | 53 | 179 | 6.0 | 11.0 | 0.00 | 0.32 | 0.32 | 90 | 1007.5 |
| 20260509191027 | 53 | 209 | 5.0 | 13.0 | 0.00 | 0.32 | 0.32 | 89 | 1007.6 |
| 20260509190526 | 53 | 190 | 6.0 | 13.0 | 0.00 | 0.32 | 0.32 | 89 | 1007.7 |
| 20260509190027 | 53 | 185 | 5.0 | 12.0 | 0.00 | 0.32 | 0.32 | 89 | 1007.7 |
| 20260509185527 | 53 | 183 | 6.0 | 11.0 | 0.00 | 0.32 | 0.32 | 89 | 1007.7 |
| 20260509185026 | 53 | 213 | 5.0 | 12.0 | 0.00 | 0.32 | 0.32 | 88 | 1007.6 |
| 20260509184527 | 53 | 206 | 9.0 | 12.0 | 0.00 | 0.32 | 0.32 | 87 | 1007.8 |
| 20260509184026 | 53 | 223 | 7.0 | 12.0 | 0.00 | 0.32 | 0.32 | 89 | 1007.8 |
| 20260509183528 | 53 | 226 | 2.0 | 9.0 | 0.00 | 0.32 | 0.32 | 89 | 1007.6 |
| 20260509183026 | 53 | 244 | 5.0 | 9.0 | 0.00 | 0.32 | 0.32 | 92 | 1007.7 |
| 20260509182802 | 53 | 168 | 5.0 | 10.0 | 0.00 | 0.32 | 0.32 | 91 | 1007.8 |
| 20260509182027 | 52 | 180 | 6.0 | 11.0 | 0.00 | 0.32 | 0.32 | 91 | 1007.7 |
| 20260509181526 | 52 | 206 | 7.0 | 11.0 | 0.00 | 0.32 | 0.32 | 91 | 1007.9 |
| 20260509181305 | 52 | 200 | 5.0 | 11.0 | 0.00 | 0.32 | 0.32 | 91 | 1007.8 |
| 20260509180526 | 52 | 155 | 5.0 | 11.0 | 0.00 | 0.32 | 0.32 | 91 | 1007.8 |
| 20260509180026 | 52 | 207 | 6.0 | 12.0 | 0.00 | 0.32 | 0.32 | 91 | 1007.8 |
| 20260509175527 | 52 | 230 | 5.0 | 12.0 | 0.00 | 0.32 | 0.32 | 91 | 1007.8 |
| 20260509175027 | 52 | 186 | 8.0 | 14.0 | 0.00 | 0.32 | 0.32 | 91 | 1007.7 |
| 20260509174526 | 52 | 178 | 6.0 | 14.0 | 0.00 | 0.32 | 0.32 | 91 | 1007.8 |
| 20260509174302 | 51 | 179 | 8.0 | 13.0 | 0.00 | 0.32 | 0.32 | 92 | 1007.8 |
| 20260509173527 | 51 | 199 | 7.0 | 13.0 | 0.00 | 0.32 | 0.32 | 91 | 1007.7 |
| 20260509173028 | 51 | 159 | 5.0 | 13.0 | 0.00 | 0.32 | 0.32 | 91 | 1007.7 |
| 20260509172525 | 51 | 172 | 6.0 | 14.0 | 0.00 | 0.32 | 0.32 | 93 | 1007.8 |
| 20260509172306 | 51 | 172 | 8.0 | 14.0 | 0.00 | 0.32 | 0.32 | 93 | 1007.7 |
| 20260509171526 | 50 | 171 | 6.0 | 11.0 | 0.00 | 0.32 | 0.32 | 92 | 1007.9 |
| 20260509171026 | 50 | 168 | 5.0 | 10.0 | 0.00 | 0.32 | 0.32 | 92 | 1007.9 |
| 20260509170527 | 50 | 186 | 5.0 | 10.0 | 0.00 | 0.32 | 0.32 | 92 | 1007.7 |
| 20260509170027 | 50 | 165 | 7.0 | 10.0 | 0.00 | 0.32 | 0.32 | 92 | 1007.8 |
| 20260509165526 | 50 | 169 | 5.0 | 10.0 | 0.00 | 0.32 | 0.32 | 91 | 1007.8 |
| 20260509165307 | 50 | 193 | 5.0 | 11.0 | 0.00 | 0.32 | 0.32 | 91 | 1007.8 |
| 20260509164543 | 50 | 188 | 5.0 | 11.0 | 0.00 | 0.32 | 0.32 | 91 | 1007.7 |
| 20260509163526 | 50 | 186 | 6.0 | 14.0 | 0.00 | 0.32 | 0.32 | 91 | 1007.8 |
| 20260509163026 | 50 | 192 | 5.0 | 13.0 | 0.00 | 0.32 | 0.32 | 91 | 1007.8 |
| 20260509162526 | 50 | 186 | 6.0 | 13.0 | 0.00 | 0.32 | 0.32 | 91 | 1007.7 |
| 20260509162300 | 50 | 131 | 6.0 | 12.0 | 0.00 | 0.32 | 0.32 | 91 | 1007.8 |
| 20260509161525 | 50 | 188 | 6.0 | 12.0 | 0.00 | 0.32 | 0.32 | 92 | 1007.7 |
| 20260509161026 | 50 | 168 | 8.0 | 16.0 | 0.00 | 0.32 | 0.32 | 92 | 1007.7 |
| 20260509160526 | 50 | 171 | 6.0 | 16.0 | 0.00 | 0.32 | 0.32 | 92 | 1007.8 |
| 20260509160026 | 50 | 161 | 8.0 | 13.0 | 0.00 | 0.32 | 0.32 | 92 | 1007.8 |
| 20260509155526 | 50 | 190 | 6.0 | 11.0 | 0.00 | 0.32 | 0.32 | 92 | 1007.8 |
| 20260509155026 | 50 | 214 | 5.0 | 11.0 | 0.00 | 0.32 | 0.32 | 92 | 1008.0 |
| 20260509154526 | 50 | 166 | 4.0 | 11.0 | 0.00 | 0.32 | 0.32 | 92 | 1008.0 |
| 20260509154027 | 50 | 161 | 6.0 | 10.0 | 0.00 | 0.32 | 0.32 | 93 | 1008.0 |
| 20260509153526 | 50 | 214 | 5.0 | 9.0 | 0.00 | 0.32 | 0.32 | 93 | 1008.1 |
| 20260509153027 | 50 | 186 | 4.0 | 12.0 | 0.00 | 0.32 | 0.32 | 93 | 1008.1 |
| 20260509152527 | 49 | 173 | 5.0 | 13.0 | 0.00 | 0.32 | 0.32 | 93 | 1008.2 |
| 20260509152027 | 49 | 162 | 9.0 | 13.0 | 0.00 | 0.32 | 0.32 | 93 | 1008.2 |
| 20260509151526 | 49 | 169 | 7.0 | 12.0 | 0.00 | 0.32 | 0.32 | 93 | 1008.4 |
| 20260509151303 | 49 | 166 | 5.0 | 10.0 | 0.00 | 0.32 | 0.32 | 93 | 1008.4 |
| 20260509150528 | 49 | 175 | 5.0 | 12.0 | 0.00 | 0.32 | 0.32 | 94 | 1008.4 |
| 20260509150026 | 49 | 168 | 5.0 | 12.0 | 0.00 | 0.32 | 0.32 | 94 | 1008.4 |
| 20260509145526 | 49 | 197 | 6.0 | 12.0 | 0.00 | 0.32 | 0.32 | 94 | 1008.4 |
| 20260509145026 | 49 | 180 | 5.0 | 13.0 | 0.00 | 0.32 | 0.32 | 94 | 1008.4 |
| 20260509144526 | 49 | 179 | 7.0 | 14.0 | 0.00 | 0.32 | 0.32 | 94 | 1008.2 |
| 20260509144026 | 49 | 151 | 8.0 | 14.0 | 0.00 | 0.32 | 0.32 | 94 | 1008.2 |
| 20260509143527 | 49 | 172 | 8.0 | 13.0 | 0.00 | 0.32 | 0.32 | 94 | 1008.2 |
| 20260509143027 | 49 | 209 | 5.0 | 13.0 | 0.00 | 0.32 | 0.32 | 94 | 1008.1 |
| 20260509142756 | 49 | 176 | 6.0 | 13.0 | 0.00 | 0.32 | 0.32 | 94 | 1008.1 |
| 20260509142026 | 49 | 172 | 6.0 | 12.0 | 0.00 | 0.32 | 0.32 | 95 | 1008.1 |
| 20260509141527 | 49 | 159 | 6.0 | 10.0 | 0.00 | 0.32 | 0.32 | 95 | 1008.1 |
| 20260509141026 | 49 | 183 | 7.0 | 11.0 | 0.00 | 0.32 | 0.32 | 95 | 1008.1 |
| 20260509140526 | 48 | 172 | 6.0 | 11.0 | 0.00 | 0.32 | 0.32 | 95 | 1008.2 |
| 20260509140255 | 48 | 148 | 6.0 | 11.0 | 0.01 | 0.32 | 0.32 | 95 | 1008.1 |
| 20260509135531 | 48 | 157 | 5.0 | 11.0 | 0.01 | 0.31 | 0.32 | 95 | 1008.4 |
| 20260509135306 | 48 | 157 | 6.0 | 14.0 | 0.01 | 0.31 | 0.32 | 95 | 1008.5 |
| 20260509134526 | 48 | 183 | 6.0 | 14.0 | 0.01 | 0.31 | 0.32 | 95 | 1008.5 |
| 20260509134026 | 48 | 196 | 8.0 | 13.0 | 0.01 | 0.31 | 0.32 | 95 | 1008.7 |
| 20260509133526 | 48 | 179 | 5.0 | 13.0 | 0.01 | 0.31 | 0.32 | 95 | 1008.6 |
| 20260509133254 | 47 | 154 | 6.0 | 14.0 | 0.02 | 0.31 | 0.32 | 95 | 1008.7 |
| 20260509132755 | 47 | 157 | 8.0 | 14.0 | 0.02 | 0.31 | 0.32 | 95 | 1008.7 |
| 20260509132252 | 47 | 182 | 8.0 | 11.0 | 0.02 | 0.31 | 0.32 | 95 | 1008.7 |
| 20260509131526 | 47 | 147 | 6.0 | 9.0 | 0.03 | 0.31 | 0.32 | 95 | 1008.8 |
| 20260509131026 | 47 | 169 | 6.0 | 9.0 | 0.03 | 0.31 | 0.32 | 95 | 1008.8 |
| 20260509130526 | 47 | 155 | 6.0 | 9.0 | 0.03 | 0.31 | 0.32 | 95 | 1008.8 |
| 20260509130026 | 47 | 147 | 5.0 | 9.0 | 0.03 | 0.31 | 0.31 | 95 | 1008.9 |
| 20260509125526 | 47 | 182 | 4.0 | 9.0 | 0.03 | 0.28 | 0.31 | 95 | 1008.9 |
| 20260509125025 | 47 | 176 | 6.0 | 9.0 | 0.03 | 0.28 | 0.31 | 95 | 1009.0 |
| 20260509124805 | 47 | 176 | 5.0 | 11.0 | 0.04 | 0.28 | 0.31 | 95 | 1008.9 |
| 20260509124026 | 47 | 151 | 7.0 | 11.0 | 0.04 | 0.28 | 0.31 | 95 | 1008.9 |
| 20260509123526 | 47 | 152 | 4.0 | 9.0 | 0.05 | 0.28 | 0.31 | 95 | 1008.9 |
| 20260509123027 | 47 | 196 | 5.0 | 11.0 | 0.04 | 0.28 | 0.30 | 95 | 1009.0 |
| 20260509122526 | 47 | 180 | 5.0 | 11.0 | 0.05 | 0.28 | 0.30 | 95 | 1009.1 |
| 20260509122025 | 47 | 168 | 3.0 | 7.0 | 0.05 | 0.28 | 0.30 | 95 | 1009.0 |
| 20260509121845 | 47 | 168 | 4.0 | 9.0 | 0.05 | 0.28 | 0.29 | 95 | 1009.1 |
| 20260509121026 | 47 | 157 | 5.0 | 9.0 | 0.06 | 0.28 | 0.29 | 95 | 1009.1 |
| 20260509120527 | 47 | 179 | 4.0 | 7.0 | 0.06 | 0.28 | 0.29 | 95 | 1009.1 |
| 20260509120026 | 47 | 193 | 3.0 | 7.0 | 0.06 | 0.28 | 0.28 | 95 | 1009.1 |
| 20260509115528 | 46 | 171 | 4.0 | 10.0 | 0.06 | 0.22 | 0.28 | 95 | 1009.2 |
| 20260509115026 | 46 | 168 | 5.0 | 10.0 | 0.07 | 0.22 | 0.28 | 95 | 1009.1 |
| 20260509114526 | 46 | 148 | 4.0 | 10.0 | 0.07 | 0.22 | 0.27 | 95 | 1009.2 |
| 20260509114035 | 46 | 161 | 6.0 | 9.0 | 0.08 | 0.22 | 0.26 | 95 | 1009.1 |
| 20260509114028 | 47 | 171 | 6.0 | 10.0 | 0.08 | 0.22 | 0.27 | 95 | 1009.2 |
| 20260509113026 | 46 | 147 | 4.0 | 9.0 | 0.09 | 0.22 | 0.26 | 95 | 1009.2 |
| 20260509112801 | 46 | 145 | 5.0 | 9.0 | 0.08 | 0.22 | 0.25 | 95 | 1009.1 |
| 20260509112026 | 46 | 164 | 3.0 | 5.0 | 0.09 | 0.22 | 0.25 | 95 | 1009.3 |
| 20260509111751 | 46 | 168 | 2.0 | 6.0 | 0.08 | 0.22 | 0.24 | 95 | 1009.3 |
| 20260509111027 | 46 | 168 | 2.0 | 6.0 | 0.08 | 0.22 | 0.23 | 95 | 1009.2 |
| 20260509110526 | 46 | 195 | 1.0 | 4.0 | 0.08 | 0.22 | 0.23 | 95 | 1009.3 |
| 20260509110305 | 46 | 168 | 2.0 | 6.0 | 0.07 | 0.22 | 0.22 | 95 | 1009.3 |
| 20260509105527 | 46 | 189 | 3.0 | 6.0 | 0.08 | 0.14 | 0.21 | 95 | 1009.3 |
| 20260509105026 | 46 | 186 | 3.0 | 5.0 | 0.07 | 0.14 | 0.21 | 95 | 1009.2 |
| 20260509104545 | 46 | 180 | 3.0 | 6.0 | 0.06 | 0.14 | 0.19 | 95 | 1009.1 |
| 20260509104539 | 46 | 189 | 2.0 | 5.0 | 0.06 | 0.14 | 0.20 | 95 | 1009.2 |
| 20260509103527 | 46 | 168 | 5.0 | 7.0 | 0.06 | 0.14 | 0.18 | 95 | 1009.2 |
| 20260509103026 | 46 | 179 | 4.0 | 7.0 | 0.06 | 0.14 | 0.17 | 95 | 1009.2 |
| 20260509102526 | 46 | 182 | 3.0 | 6.0 | 0.06 | 0.14 | 0.17 | 95 | 1009.0 |
| 20260509102026 | 46 | 165 | 5.0 | 6.0 | 0.06 | 0.14 | 0.16 | 94 | 1009.1 |
| 20260509101525 | 46 | 138 | 5.0 | 9.0 | 0.06 | 0.14 | 0.16 | 94 | 1009.0 |
| 20260509101026 | 46 | 182 | 6.0 | 11.0 | 0.05 | 0.14 | 0.15 | 94 | 1009.0 |
| 20260509100526 | 46 | 168 | 7.0 | 11.0 | 0.05 | 0.14 | 0.15 | 94 | 1009.0 |
| 20260509100026 | 46 | 148 | 5.0 | 10.0 | 0.05 | 0.14 | 0.14 | 94 | 1008.9 |